Regional Weather Roundup
Issued by NWS

Home | Current Version | Previous Version | Text Only | Print | Product List | Glossary Off
Versions: 1 2 3 4 5 6 7 8 9 10 11 12 13 14 15 16 17 18 19 20 21 22 23 24 25 26 27 28 29 30 31 32 33 34 35 36 37 38 39 40 41 42 43 44 45 46 47 48 49 50

708
ASUS44 KLIX 241710
RWRLA
LOUISIANA WEATHER ROUNDUP
NATIONAL WEATHER SERVICE NEW ORLEANS LA
1200 PM CDT THU APR 24 2014

NOTE: "FAIR" INDICATES FEW OR NO CLOUDS BELOW 12,000 FEET WITH NO
      SIGNIFICANT WEATHER AND/OR OBSTRUCTIONS TO VISIBILITY.
      SKY/WX - SKY CONDITION AND SIGNIFICANT WEATHER.
      TMP - AIR TEMPERATURE.    DP   - DEWPOINT TEMPERATURE.
      RH  - RELATIVE HUMIDITY.  PRES - PRESSURE.
      HX  - HEAT INDEX.         WCI  - WIND CHILL INDEX.

*  THESE STATIONS ARE NOT NWS OR FAA STATIONS AND ARE NOT UNDER
   NWS QUALITY CONTROL.

LAZ040-048-061>063-065-066-069-241800-
SOUTHEAST LOUISIANA

CITY           SKY/WX    TMP DP  RH WIND       PRES   REMARKS
N.O. AUDUBON     N/A     83  66  56 MISG        N/A
N.O. INTL ARPT MOSUNNY   80  66  62 S13       29.98F
N.O. LAKEFRONT MOSUNNY   79  62  56 S8        29.98F
N.O. DOWNTOWN* PTSUNNY   82  61  47 S10       29.98F
SLIDELL        MOSUNNY   78  61  55 S10       29.98F
BATON ROUGE    PTSUNNY   80  63  55 S12       29.95F
BOOTHVILLE     SUNNY     74  64  71 S8        30.00F
BELLE CHASSE   PTSUNNY   80  63  55 S9        29.98F
BOGALUSA*        N/A     78  62  57 S7        29.99F
GALLIANO*      MOSUNNY   80  66  61 S8        29.99F
NEW ROADS*     FAIR      76  65  67 S9G18     29.94F
GONZALES*      FAIR      79  65  63 SE10      29.95F
HAMMOND*       SUNNY     81  59  47 S10       29.98F
HOUMA*         PTSUNNY   79  64  61 SE7       29.99S
PORT FOURCHON* PTSUNNY   75  66  73 SE10      30.01F

$$

LAZ041-044-053-054-241800-
SOUTHWEST LOUISIANA

CITY           SKY/WX    TMP DP  RH WIND       PRES   REMARKS
LAKE CHARLES   CLOUDY    78  61  55 S9G18     29.93S
LAFAYETTE      PTSUNNY   78  65  63 S13       29.94F
PATTERSON      MOSUNNY   77  68  73 S14       29.99F
SALT POINT       N/A     78  70  76 SE8       29.95F
NEW IBERIA     MOSUNNY   81  66  60 S15       29.94F
CHENAULT AIRPK NOT AVBL

$$

LAZ027-028-241800-
CENTRAL LOUISIANA

CITY           SKY/WX    TMP DP  RH WIND       PRES   REMARKS
FORT POLK      PTSUNNY   77  64  64 S12G18    29.90F
ALEXANDRIA INT PTSUNNY   80  58  46 S10G22    29.89F
ALEXANDRIA     PTSUNNY   78  65  63 S9        29.91F

$$

LAZ001-002-241800-
NORTHWEST LOUISIANA

CITY           SKY/WX    TMP DP  RH WIND       PRES   REMARKS
SHREVEPORT     CLOUDY    76  63  64 S15       29.86F
BARKSDALE AFB  PTSUNNY   77  62  60 S15G23    29.86F
DTN SHREVEPORT CLOUDY    74  63  68 S13       29.86S

$$

LAZ014-016-241800-
NORTHEAST LOUISIANA

CITY           SKY/WX    TMP DP  RH WIND       PRES   REMARKS
MONROE         MOSUNNY   77  64  64 S10       29.90F
TALLULAH       MOSUNNY   78  60  53 SW9G21    29.92S

$$




USA.gov is the U.S. government's official web portal to all federal, state and local government web resources and services.